Location: Oberwangen
(47.4286°N, 8.9679°E)
Time: 10:08:10
(UTC+00:00)

Cosmos 1816 Rocket - Pass Details

Date: 26 October 2021
Orbit: 952 x 998 km, 82.9° (Epoch: 08 December)

Event Time Altitude Azimuth Distance (km) Brightness Sun altitude
Rises 17:25:00 0° 1° (N) 3,652 7.4 -12.2°
Reaches altitude 10° 17:28:25 10° 20° (NNE) 2,708 6.6 -12.7°
Maximum altitude 17:32:33 18° 62° (ENE) 2,170 5.8 -13.4°
Enters shadow 17:33:27 18° 73° (ENE) 2,199 5.7 -13.6°
